TimeCDT,TemperatureF,Dew PointF,Humidity,Sea Level PressureIn,VisibilityMPH,Wind Direction,Wind SpeedMPH,Gust SpeedMPH,PrecipitationIn,Events,Conditions,WindDirDegrees,DateUTC
12:53 AM,72.0,69.1,91,29.95,10.0,NE,8.1,-,N/A,,Clear,40,2013-08-03 05:53:00
1:53 AM,72.0,66.9,84,29.96,10.0,NE,9.2,-,N/A,,Mostly Cloudy,40,2013-08-03 06:53:00
2:53 AM,71.1,63.0,75,29.96,10.0,NNE,8.1,-,N/A,,Overcast,30,2013-08-03 07:53:00
3:53 AM,69.1,62.1,78,29.96,10.0,NE,8.1,-,N/A,,Overcast,40,2013-08-03 08:53:00
4:53 AM,68.0,61.0,78,29.98,10.0,NNE,6.9,-,N/A,,Overcast,30,2013-08-03 09:53:00
5:53 AM,66.9,60.1,79,30.00,10.0,NE,6.9,-,N/A,,Clear,50,2013-08-03 10:53:00
6:53 AM,66.9,59.0,76,30.02,10.0,NE,8.1,-,N/A,,Overcast,50,2013-08-03 11:53:00
7:53 AM,68.0,59.0,73,30.05,10.0,ENE,8.1,-,N/A,,Partly Cloudy,70,2013-08-03 12:53:00
8:53 AM,71.1,60.1,68,30.06,10.0,ENE,9.2,-,N/A,,Clear,60,2013-08-03 13:53:00
9:53 AM,75.0,61.0,62,30.06,10.0,ENE,9.2,-,N/A,,Clear,70,2013-08-03 14:53:00
10:53 AM,78.1,63.0,60,30.09,10.0,ENE,8.1,-,N/A,,Clear,60,2013-08-03 15:53:00
11:53 AM,81.0,64.9,58,30.09,10.0,ENE,5.8,-,N/A,,Clear,60,2013-08-03 16:53:00
12:53 PM,82.9,66.9,58,30.08,10.0,NE,8.1,-,N/A,,Clear,50,2013-08-03 17:53:00
1:53 PM,84.0,68.0,58,30.08,10.0,Variable,4.6,-,N/A,,Clear,0,2013-08-03 18:53:00
2:53 PM,82.9,68.0,60,30.08,10.0,Variable,6.9,-,N/A,,Mostly Cloudy,0,2013-08-03 19:53:00
3:53 PM,84.9,69.1,59,30.07,10.0,NNE,10.4,-,N/A,,Mostly Cloudy,30,2013-08-03 20:53:00
4:53 PM,82.0,66.0,58,30.07,10.0,NNE,8.1,-,N/A,,Overcast,20,2013-08-03 21:53:00
5:53 PM,84.0,64.9,53,30.05,10.0,ENE,10.4,-,N/A,,Scattered Clouds,60,2013-08-03 22:53:00
6:53 PM,84.0,64.0,51,30.04,10.0,ENE,5.8,-,N/A,,Clear,70,2013-08-03 23:53:00
7:53 PM,79.0,66.0,64,30.05,10.0,Calm,Calm,-,N/A,,Clear,0,2013-08-04 00:53:00
8:53 PM,75.0,70.0,84,30.07,10.0,North,8.1,-,N/A,,Clear,10,2013-08-04 01:53:00
9:53 PM,77.0,61.0,58,30.10,10.0,ENE,11.5,-,N/A,,Scattered Clouds,70,2013-08-04 02:53:00
10:53 PM,77.0,60.1,56,30.12,10.0,ENE,10.4,-,N/A,,Overcast,70,2013-08-04 03:53:00
11:53 PM,75.0,57.0,53,30.13,10.0,East,10.4,-,N/A,,Overcast,80,2013-08-04 04:53:00